Location: Lake Almanor
(40.2485°N, 121.1442°W)
Time: 16:45:50
(UTC-08:00)

N. Korean satellite - Pass Details

Date: 30 January 2020
Orbit: 456 x 505 km, 97.2° (Epoch: 27 February)

Event Time Altitude Azimuth Distance (km) Brightness Sun altitude
Rises 06:35:04 0° 358° (N) 2,560 10.0 -8.1°
Reaches altitude 10° 06:37:22 10° 345° (NNW) 1,683 9.0 -7.7°
Maximum altitude 06:40:22 25° 289° (WNW) 1,036 7.6 -7.2°
Drops below altitude 10° 06:43:23 10° 233° (SW) 1,693 9.0 -6.6°
Sets 06:45:42 0° 220° (SW) 2,578 10.0 -6.2°
